This is the latest recevied weather packets stored in our database for station/object WX5RP. If no packets are shown the sender has not sent any weather packets the latest 10 day(s).
| Time | Temp. | Humidity | Pressure | Rain* | Wind** | Luminosity | Snow |
|---|---|---|---|---|---|---|---|
| 1778265917 | 18.33° C | 27% | 1020.4 hPa | 0 mm | - | 571 W/m² | - |
| 1778265318 | 18.33° C | 33% | 1020.3 hPa | 0 mm | - | 436 W/m² | - |
| 1778264717 | 18.89° C | 30% | 1020.8 hPa | 0 mm | - | 437 W/m² | - |
| 1778264117 | 18.33° C | 29% | 1020.7 hPa | 0 mm | - | 496 W/m² | - |
| 1778263516 | 17.78° C | 30% | 1020.6 hPa | 0 mm | - | 735 W/m² | - |
| 1778262916 | 17.78° C | 32% | 1020.8 hPa | 0 mm | - | 479 W/m² | - |
| 1778262317 | 17.22° C | 36% | 1020.8 hPa | 0 mm | - | 1074 W/m² | - |
| 1778261716 | 16.67° C | 38% | 1020.9 hPa | 0 mm | - | 749 W/m² | - |
| 1778261116 | 15.56° C | 34% | 1020.8 hPa | 0 mm | - | 525 W/m² | - |
| 1778260516 | 15.56° C | 42% | 1020.3 hPa | 0 mm | - | 394 W/m² | - |
| 1778259916 | 15.56° C | 38% | 1020.6 hPa | 0 mm | - | 380 W/m² | - |
| 1778259316 | 15.56° C | 38% | 1021.2 hPa | 0 mm | - | 608 W/m² | - |
| 1778258716 | 15° C | 40% | 1021.5 hPa | 0 mm | - | 454 W/m² | - |
| 1778258116 | 15.56° C | 39% | 1021 hPa | 0 mm | - | 594 W/m² | - |
| 1778257516 | 15.56° C | 38% | 1021.7 hPa | 0 mm | - | 619 W/m² | - |
| 1778256916 | 13.89° C | 45% | 1021.7 hPa | 0 mm | - | 689 W/m² | - |
| 1778256316 | 13.33° C | 46% | 1020.4 hPa | 0 mm | - | 345 W/m² | - |
| 1778255716 | 12.78° C | 48% | 1020.1 hPa | 0 mm | - | 236 W/m² | - |
| 1778255117 | 12.22° C | 52% | 1019.8 hPa | 0 mm | - | 313 W/m² | - |
| 1778254516 | 12.22° C | 52% | 1019.7 hPa | 0 mm | - | 279 W/m² | - |
| 1778253915 | 11.67° C | 52% | 1020.4 hPa | 0 mm | - | 237 W/m² | - |
| 1778253316 | 11.67° C | 53% | 1020.4 hPa | 0 mm | - | 212 W/m² | - |
| 1778252716 | 11.11° C | 54% | 1020.3 hPa | 0 mm | - | 339 W/m² | - |
| 1778252115 | 10° C | 56% | 1020.3 hPa | 0 mm | - | 313 W/m² | - |
| 1778251516 | 9.44° C | 57% | 1020.3 hPa | 0 mm | - | 416 W/m² | - |
* Rain latest hour (hover to see other rain measurements)
** Current wind speed in m/s (hover to see current wind gust speed)